TimeEDT,TemperatureF,Dew PointF,Humidity,Sea Level PressureIn,VisibilityMPH,Wind Direction,Wind SpeedMPH,Gust SpeedMPH,PrecipitationIn,Events,Conditions,WindDirDegrees,DateUTC
12:58 AM,70.0,70.0,100,30.13,10.0,ESE,3.5,-,N/A,,Clear,110,2013-06-01 04:58:00
1:58 AM,69.1,69.1,100,30.12,10.0,East,2.3,-,N/A,,Clear,90,2013-06-01 05:58:00
2:58 AM,67.6,67.6,100,30.11,10.0,Calm,Calm,-,N/A,,Clear,0,2013-06-01 06:58:00
3:58 AM,66.9,66.9,100,30.10,10.0,Calm,Calm,-,N/A,,Clear,0,2013-06-01 07:58:00
4:58 AM,66.2,66.2,100,30.11,10.0,Calm,Calm,-,N/A,,Clear,0,2013-06-01 08:58:00
5:58 AM,65.3,65.3,100,30.12,10.0,Calm,Calm,-,N/A,,Clear,0,2013-06-01 09:58:00
6:58 AM,65.7,65.7,100,30.13,10.0,NE,2.3,-,N/A,,Clear,50,2013-06-01 10:58:00
7:58 AM,71.4,71.4,100,30.13,10.0,Calm,Calm,-,N/A,,Clear,0,2013-06-01 11:58:00
8:58 AM,77.9,72.1,82,30.13,10.0,ESE,6.9,-,N/A,,Clear,110,2013-06-01 12:58:00
9:33 AM,80.6,71.6,74,30.12,10.0,ESE,9.2,-,N/A,,Mostly Cloudy,120,2013-06-01 13:33:00
9:48 AM,78.8,71.6,78,30.12,10.0,ESE,8.1,-,N/A,,Scattered Clouds,110,2013-06-01 13:48:00
9:58 AM,80.2,70.3,72,30.13,10.0,SE,11.5,-,N/A,,Scattered Clouds,140,2013-06-01 13:58:00
10:58 AM,83.8,68.4,59,30.13,10.0,SE,11.5,17.3,N/A,,Scattered Clouds,140,2013-06-01 14:58:00
11:58 AM,85.3,68.4,57,30.12,10.0,East,13.8,-,N/A,,Scattered Clouds,100,2013-06-01 15:58:00
12:58 PM,86.5,68.4,54,30.11,10.0,ESE,12.7,-,N/A,,Mostly Cloudy,110,2013-06-01 16:58:00
1:58 PM,87.8,68.7,53,30.10,10.0,ESE,13.8,18.4,N/A,,Mostly Cloudy,120,2013-06-01 17:58:00
2:58 PM,87.1,66.6,50,30.08,10.0,SE,13.8,18.4,N/A,,Partly Cloudy,130,2013-06-01 18:58:00
3:58 PM,87.1,67.8,53,30.08,10.0,SE,11.5,-,N/A,,Partly Cloudy,140,2013-06-01 19:58:00
4:58 PM,85.8,67.1,53,30.08,10.0,SE,10.4,-,N/A,,Clear,130,2013-06-01 20:58:00
5:58 PM,83.7,68.2,59,30.07,10.0,SE,11.5,-,N/A,,Partly Cloudy,130,2013-06-01 21:58:00
6:58 PM,82.8,67.3,59,30.07,10.0,ESE,12.7,-,N/A,,Clear,110,2013-06-01 22:58:00
7:58 PM,79.5,69.6,72,30.07,10.0,ESE,10.4,-,N/A,,Clear,110,2013-06-01 23:58:00
8:58 PM,75.9,70.0,82,30.07,10.0,ESE,8.1,-,N/A,,Clear,120,2013-06-02 00:58:00
9:58 PM,73.4,69.6,88,30.08,10.0,ESE,5.8,-,N/A,,Clear,120,2013-06-02 01:58:00
10:58 PM,72.3,70.0,92,30.10,10.0,SE,2.3,-,N/A,,Clear,130,2013-06-02 02:58:00
11:58 PM,70.0,68.9,96,30.10,10.0,Calm,Calm,-,N/A,,Clear,0,2013-06-02 03:58:00